Location: Unspecified
(0.0000°N, 0.0000°E)
Time: 20:02:13
(UTC+00:00)

Vanguard 1 - Pass Details

Date: 12 December 2017
Orbit: 649 x 3834 km, 34.2° (Epoch: 21 January)

Event Time Altitude Azimuth Distance (km) Brightness Sun altitude
Rises 18:01:51 0° 307° (NW) 3,357 13.3 -1.8°
Reaches altitude 10° 18:04:32 10° 308° (NW) 2,224 12.3 -2.4°
Maximum altitude 18:09:17 83° 36° (NE) 655 9.2 -3.5°
Drops below altitude 10° 18:13:48 10° 124° (SE) 2,113 11.5 -4.6°
Sets 18:16:17 0° 125° (SE) 3,172 12.4 -5.1°
